Location: Crucecita
(10.4167°N, 67.3333°W)
Time: 12:22:05
(UTC+00:00)

Daily predictions for brighter satellites

Satellite Brightness Start Highest point End
(mag) Time Altitude Azimuth Time Altitude Azimuth Time Altitude Azimuth
Cosmos 2056 Rocket 3.8 22:20:25 10° S 22:25:29 49° E 22:30:38 10° NNE
Cosmos 1544 4.4 22:22:55 10° NNW 22:25:57 39° W 22:29:00 10° SSW
JB-3 4.2 22:23:31 10° NNE 22:27:17 69° E 22:31:01 10° S
SKYMED 2 3.9 22:23:07 10° N 22:27:26 73° WNW 22:31:45 10° SSW
Cosmos 1812 Rocket 4.3 22:26:41 10° SSW 22:30:55 58° W 22:35:09 10° N
TRACE 4.4 22:33:56 10° NNE 22:37:27 75° ESE 22:40:59 10° S
Maqsat-H 4.1 22:39:03 10° SW 22:41:41 14° SSW 22:43:47 10° SSE
Intelsat 5-2 Rocket 3.8 22:41:13 10° W 22:43:24 30° SSW 22:46:27 10° SE
SL-4 R/B 1.5 22:45:14 10° SSW 22:48:34 65° SE 22:51:07 15° NE
SL-16 R/B 2.3 22:43:45 10° NNW 22:49:24 83° WSW 22:55:02 10° SSE
Cosmos 1371 Rocket 4.1 22:44:18 10° SSW 22:49:27 81° WNW 22:54:39 10° N
ADEOS 4.3 22:45:03 10° SE 22:49:32 30° ENE 22:54:00 10° NNE
GPS 2-17 Rocket1 3.1 22:45:03 10° WNW 22:49:48 69° NNE 22:54:04 13° E
Hubble Space Telescope 2.8 22:49:49 10° N 22:51:13 11° NNE 22:52:10 11° NNE
Cosmos 1602 4.2 22:48:24 10° NNW 22:52:05 62° W 22:55:46 10° S
Cosmos 1666 4.1 22:51:25 10° NNW 22:54:42 38° W 22:58:01 10° SSW
BLOCK DM-SL R/B 4.2 22:52:14 10° WSW 22:56:09 31° S 23:00:28 10° ESE
ARIANE 44LP R/B 3.4 22:56:28 10° WSW 23:02:03 36° S 23:03:44 16° ESE
Cosmos 1515 3.4 22:58:32 10° S 23:02:04 64° E 23:05:33 10° NNE
Cosmos 1943 4.0 22:58:36 10° NNE 23:03:19 27° ENE 23:08:02 10° SE
GPS 2-14 Rocket1 3.4 23:00:39 10° W 23:04:00 36° NNW 23:05:38 23° NE
Cosmos 44 3.8 22:59:36 10° N 23:04:16 37° ENE 23:08:40 10° SE
ARIANE 44L R/B 2.7 23:03:23 10° WSW 23:05:32 46° S 23:09:11 16° ESE
Cosmos 2084 Rocket 3.4 23:03:04 10° NNW 23:06:54 72° WSW 23:10:53 10° SSE
CZ-4B R/B 3.7 23:06:30 10° SE 23:10:25 33° ENE 23:13:14 17° NNE
Radarsat Rocket 3.8 23:05:10 10° SSE 23:11:16 75° ENE 23:17:03 10° N
Meteor 1-29 4.1 23:13:42 10° SSE 23:14:46 21° SE 23:14:46 21° SE
Meteor 2-6 Rocket 4.4 23:11:14 10° S 23:16:53 54° E 23:21:39 15° NNE
Meteor 1-25 Rocket 4.3 23:18:54 10° N 23:24:28 77° W 23:29:59 10° S
H-2A ROCKET BODY 3.7 23:26:20 10° SW 23:27:45 13° SSW 23:29:47 10° SSE
Cosmos 2221 4.0 23:24:35 10° SSW 23:28:29 35° W 23:32:22 10° NNW
Delta 7925 Rocket 4.4 23:27:23 10° W 23:31:36 32° NNW 23:33:01 27° NNE
Cosmos 2266 Rocket 4.0 23:28:12 10° SSE 23:34:17 55° E 23:36:47 34° NNE
Cosmos 1553 Rocket 4.2 23:32:19 32° NE 23:34:36 44° E 23:40:22 10° SSE
YAOGAN 1 2.4 23:31:15 10° SSE 23:35:31 72° ENE 23:37:08 37° N
NOSS 3-4 (A) 4.5 23:28:19 10° NNW 23:36:19 69° WSW 23:44:54 10° SSE
NOSS 3-4 (C) 4.5 23:28:27 10° NNW 23:36:21 69° WSW 23:44:52 10° SSE
Cosmos 1140 Rocket 3.4 23:36:32 10° NNW 23:41:40 84° WSW 23:46:46 10° S
Cosmos 1378 3.5 23:40:26 10° S 23:43:16 54° SW 23:43:16 54° SW
Meteor 1-10 Rocket 4.2 23:43:53 10° S 23:49:36 64° E 23:50:08 61° ENE
Stardust Del rocket 4.2 23:42:23 10° WNW 23:49:26 51° N 23:49:26 51° N
Cosmos 1110 Rocket 3.8 23:48:21 10° SSW 23:53:33 89° WNW 23:54:05 73° N
